Regional Weather Roundup
Issued by NWS

Home | Current Version | Previous Version | Graphics & Text | Print | Product List | Glossary On
Versions: 1 2 3 4 5 6 7 8 9 10 11 12 13 14 15 16 17 18 19 20 21 22 23 24 25 26 27 28 29 30 31 32 33 34 35 36 37 38 39 40 41 42 43 44 45 46 47 48 49 50
000
ASUS43 KIND 300209
RWRIN

WEATHER ROUNDUP FOR INDIANA
NATIONAL WEATHER SERVICE INDIANAPOLIS IN
1000 PM EDT FRI MAY 29 2015

NOTE: "FAIR" INDICATES FEW OR NO CLOUDS BELOW 12,000 FEET WITH NO
SIGNIFICANT WEATHER AND/OR OBSTRUCTIONS TO VISIBILITY.

* - STATION DOES NOT REPORT WEATHER SUCH AS PRECIPITATION OR FOG.

+ - STATION NOT QUALITY CONTROLLED BY THE NATIONAL WEATHER SERVICE.
    USE DATA WITH CAUTION...ESPECIALLY DEWPOINT AND RELATIVE
    HUMIDITY OBSERVATIONS.

INZ001>003-010>013-019-020-300300-
NORTHWEST INDIANA

CITY           SKY/WX    TMP DP  RH WIND       PRES   REMARKS
GARY /AIRPORT/ MOCLDY    75  66  73 S9        29.95R
KNOX *+        MOCLDY    77  61  57 SW13      29.95S
LA PORTE +     MOCLDY    73  68  83 SW13      29.97S
MICHIGAN CITY+ MOCLDY    73  61  64 SW3       29.96R
MONTICELLO +   PTCLDY    77  65  67 S7        29.97S
RENSSELAER +   CLOUDY    73  66  78 W6        29.98R
VALPARAISO     LGT RAIN  71  67  87 SW13      29.97R

$$

LMZ046-743>745-300300-
SOUTHERN LAKE MICHIGAN

STATION/POSITION TIME  TEMP    WIND        PRES    WAVE
                       AIR SEA DIR/SP/G            HT
                 (UTC) (F)     (DEG/KT/KT) (MB)    (FT)
BURNS HARBOR     0200   75     210/ 15/ 20 1014.2S
MICHIGAN CITY    0200          190/  8/  9   N/A
5NW MICH CITY    0200   63 56  200/  6/ 10   N/A     1

$$

INZ004-005-014>016-021>024-300300-
NORTH CENTRAL INDIANA

CITY           SKY/WX    TMP DP  RH WIND       PRES   REMARKS
GOSHEN         PTCLDY    77  64  64 S10       29.97R
LOGANSPORT +   PTCLDY    77  59  53 S10       30.01R
PERU/GRISSOM   MOCLDY    75  64  68 S9        29.99S
ROCHESTER +    PTCLDY    79  64  61 S9        29.99R
SOUTH BEND     MOCLDY    80  63  55 S13       29.95R

$$

INZ006>009-017-018-025>027-300300-
NORTHEAST INDIANA

CITY           SKY/WX    TMP DP  RH WIND       PRES   REMARKS
ANGOLA *+      MOCLDY    77  70  78 S8        29.98S
FORT WAYNE     MOCLDY    76  63  64 S10       30.00R
HUNTINGTON +   CLEAR     76  63  63 S5        30.00S

$$

INZ028-029-035-036-043>045-051>053-300300-
WEST CENTRAL INDIANA

CITY           SKY/WX    TMP DP  RH WIND       PRES   REMARKS
CRAWFORDSVL +  PTCLDY    73  60  62 S8        30.02R
GREENCASTLE +  CLEAR     72  61  68 S5        30.04R
LAFAYETTE      PTCLDY    76  64  66 S7        29.98R
TERRE HAUTE    PTCLDY    76  66  71 S7        30.01R

$$

INZ030>032-037>040-046>048-054>057-064-065-300300-
CENTRAL INDIANA

CITY           SKY/WX    TMP DP  RH WIND       PRES   REMARKS
CP ATTERBURY + CLEAR     70  63  78 S6        30.05R
COLUMBUS       CLEAR     73  63  68 S8        30.05R
FRANKFORT +    PTCLDY    75  64  69 S5        30.04R
GREENWOOD *+   CLEAR     75  61  60 S8        30.05R
INDIANAPOLIS   PTCLDY    75  63  66 S8        30.02R
-EAGLE CREEK   CLEAR     75  64  68 SW6       30.03R
KOKOMO *+      PTCLDY    75  64  69 S10       30.01R
MARION +       PTCLDY    75  61  62 SW7       30.03R
MT COMFORT *+  CLEAR     75  55  50 SW7       30.04R
SHELBYVILLE    CLEAR     77  64  64 S9        30.03R
ZIONSVILLE +   CLEAR     76  62  60 S8        30.04R

$$

INZ033-034-041-042-049-050-058-059-300300-
EAST CENTRAL INDIANA

CITY           SKY/WX    TMP DP  RH WIND       PRES   REMARKS
MUNCIE         CLEAR     77  63  61 S8        30.03R

$$

INZ060-061-067>069-081>083-085>088-300300-
SOUTHWEST INDIANA

CITY           SKY/WX    TMP DP  RH WIND       PRES   REMARKS
EVANSVILLE     PTCLDY    77  67  71 S5        30.04R
HUNTINGBURG *+ CLEAR     73  66  78 SE6       30.05R
WASHINGTON +   CLEAR     74  65  71 S7        30.03R

$$

INZ062-063-066-070>080-084-089>092-300300-
SOUTH CENTRAL AND SOUTHEAST INDIANA

CITY           SKY/WX    TMP DP  RH WIND       PRES   REMARKS
BLOOMINGTON    CLEAR     73  66  78 S6        30.04S
MADISON *+     CLEAR     73  63  68 CALM      30.09R
NORTH VERNON + CLEAR     73  64  73 S6        30.07R
SEYMOUR +      CLEAR     77  64  65 S6        30.05R

$$




USA.gov is the U.S. government's official web portal to all federal, state and local government web resources and services.